Search the data

BODC Cruise Metadata Report for FRV Clupea (74CU) cruise 2198C

Introduction

This report collates information from the BODC cruise inventory and oceanographic databases. It presents

Cruise Inventory Information

Long name FRV Clupea (74CU) cruise 2198C
Short name 2198C
Objectives and Narrative 1. To survey 13 sea lochs in the Outer Hebrides and the mainland to obtain temperature, salinity and background nutrient data for testing and calibration of computer models.
2. To collect sediment samples for polyaromatic hydrocarbon (PAH) analysis.
3. To dredge for scallops at four sites to the North-east of Orkney for PSP analysis.
Ship FRV Clupea
Departure Port Fraserburgh, United Kingdom
Departure Date 1998-12-04
Arrival Port Fraserburgh, United Kingdom
Arrival Date 1998-12-16
Principal Scientist(s) Phil A Gillibrand (Fisheries Research Services Aberdeen Marine Laboratory)
Responsible Organisation Fisheries Research Services Aberdeen Marine Laboratory
Associated Project(s)
IHB Sea Areas Visited North Sea, Inner Seas off the West Coast of Scotland
Marsden Squares Visited 181;3/181;4
Work Area Description Outer Hebrides, West Coast of Scotland, East of Orkney, UK
Work Area Bounding Polygon 55N,10W; 60N,10W; 60N,0E; 55N,0E; 55N,10W
Southern Limit 55N
Northern Limit 60N
Western Limit 10W
Eastern Limit 0E

Cruise Inventory Datasets

Physical oceanography  
CTD stations Quantity: number of stations = 79
Description: CTD stations  
Chemical oceanography  
Ammonia Quantity: number of stations = 79
Description: Water bottle stations  
Nitrate Quantity: number of stations = 79
Description: Water bottle stations  
Phosphate Quantity: number of stations = 79
Description: Water bottle stations  
Silicate Quantity: number of stations = 79
Description: Water bottle stations  
Biology and fisheries  
Molluscs Quantity: number of hauls = 4
Description: Scallop dredges  
Geology and geophysics  
Grab Quantity: number of samples = 121
Description: Grab samples for PAH analysis  

Cruise Inventory Mooring/Buoy Operations

No information on datasets is currently available

Summary of BODC Data Holdings for the Cruise

National Oceanographic Database

Summary

# Series Instrument Description Parameters
79 CTD/STD cast Electrical conductivity of the water column
Reference numbers
Salinity of the water column
Temperature of the water column
Vertical spatial coordinates

Note: Parameter terms are taken from the BODC Parameter Discovery Vocabulary XML (SKOS)

Full List

BODC Reference Instrument Description Date/Time Location  
513612 CTD/STD cast 1998-12-07 10:11Z 57° 55' N, 5° 13' W Click for more
513624 CTD/STD cast 1998-12-07 10:36Z 57° 54' N, 5° 12' W Click for more
513636 CTD/STD cast 1998-12-07 10:56Z 57° 54' N, 5° 11' W Click for more
513648 CTD/STD cast 1998-12-07 11:18Z 57° 53' N, 5° 9' W Click for more
513661 CTD/STD cast 1998-12-07 11:33Z 57° 53' N, 5° 9' W Click for more
513673 CTD/STD cast 1998-12-07 11:50Z 57° 52' N, 5° 8' W Click for more
513685 CTD/STD cast 1998-12-07 12:25Z 57° 52' N, 5° 6' W Click for more
513697 CTD/STD cast 1998-12-07 12:40Z 57° 51' N, 5° 6' W Click for more
513704 CTD/STD cast 1998-12-07 12:58Z 57° 51' N, 5° 5' W Click for more
513716 CTD/STD cast 1998-12-07 13:14Z 57° 50' N, 5° 4' W Click for more
513728 CTD/STD cast 1998-12-08 13:40Z 57° 47' N, 5° 37' W Click for more
513741 CTD/STD cast 1998-12-08 13:58Z 57° 47' N, 5° 38' W Click for more
513753 CTD/STD cast 1998-12-08 14:22Z 57° 48' N, 5° 37' W Click for more
513765 CTD/STD cast 1998-12-08 14:40Z 57° 48' N, 5° 36' W Click for more
513777 CTD/STD cast 1998-12-08 15:00Z 57° 48' N, 5° 38' W Click for more
513789 CTD/STD cast 1998-12-08 15:17Z 57° 49' N, 5° 39' W Click for more
513790 CTD/STD cast 1998-12-08 15:36Z 57° 50' N, 5° 39' W Click for more
513808 CTD/STD cast 1998-12-08 15:53Z 57° 51' N, 5° 40' W Click for more
513821 CTD/STD cast 1998-12-08 16:10Z 57° 52' N, 5° 40' W Click for more
513833 CTD/STD cast 1998-12-08 18:00Z 57° 42' N, 5° 48' W Click for more
513845 CTD/STD cast 1998-12-08 18:16Z 57° 42' N, 5° 46' W Click for more
513857 CTD/STD cast 1998-12-08 18:31Z 57° 43' N, 5° 45' W Click for more
513869 CTD/STD cast 1998-12-08 18:48Z 57° 43' N, 5° 44' W Click for more
513870 CTD/STD cast 1998-12-09 08:27Z 57° 42' N, 5° 42' W Click for more
513882 CTD/STD cast 1998-12-09 08:45Z 57° 43' N, 5° 42' W Click for more
513894 CTD/STD cast 1998-12-09 09:07Z 57° 43' N, 5° 43' W Click for more
513901 CTD/STD cast 1998-12-09 15:56Z 57° 31' N, 5° 39' W Click for more
513913 CTD/STD cast 1998-12-09 16:08Z 57° 31' N, 5° 40' W Click for more
513925 CTD/STD cast 1998-12-09 16:21Z 57° 32' N, 5° 40' W Click for more
513937 CTD/STD cast 1998-12-09 16:45Z 57° 33' N, 5° 41' W Click for more
513949 CTD/STD cast 1998-12-09 16:58Z 57° 33' N, 5° 42' W Click for more
513950 CTD/STD cast 1998-12-10 08:57Z 57° 34' N, 5° 43' W Click for more
513962 CTD/STD cast 1998-12-10 09:15Z 57° 34' N, 5° 43' W Click for more
513974 CTD/STD cast 1998-12-10 09:36Z 57° 34' N, 5° 45' W Click for more
513986 CTD/STD cast 1998-12-10 09:58Z 57° 34' N, 5° 46' W Click for more
513998 CTD/STD cast 1998-12-10 10:19Z 57° 35' N, 5° 47' W Click for more
514001 CTD/STD cast 1998-12-10 10:39Z 57° 36' N, 5° 48' W Click for more
514013 CTD/STD cast 1998-12-10 11:11Z 57° 34' N, 5° 44' W Click for more
514025 CTD/STD cast 1998-12-10 11:30Z 57° 36' N, 5° 45' W Click for more
514037 CTD/STD cast 1998-12-10 11:52Z 57° 36' N, 5° 46' W Click for more
514049 CTD/STD cast 1998-12-10 12:38Z 57° 37' N, 5° 46' W Click for more
514050 CTD/STD cast 1998-12-10 12:58Z 57° 37' N, 5° 48' W Click for more
514062 CTD/STD cast 1998-12-11 09:01Z 57° 49' N, 6° 41' W Click for more
514074 CTD/STD cast 1998-12-11 09:25Z 57° 51' N, 6° 43' W Click for more
514086 CTD/STD cast 1998-12-11 09:41Z 57° 51' N, 6° 42' W Click for more
514098 CTD/STD cast 1998-12-11 10:01Z 57° 52' N, 6° 45' W Click for more
514105 CTD/STD cast 1998-12-11 10:19Z 57° 52' N, 6° 46' W Click for more
514117 CTD/STD cast 1998-12-11 10:33Z 57° 52' N, 6° 45' W Click for more
514129 CTD/STD cast 1998-12-11 10:51Z 57° 53' N, 6° 47' W Click for more
514130 CTD/STD cast 1998-12-11 11:10Z 57° 52' N, 6° 45' W Click for more
514142 CTD/STD cast 1998-12-11 11:28Z 57° 52' N, 6° 43' W Click for more
514154 CTD/STD cast 1998-12-11 11:50Z 57° 51' N, 6° 45' W Click for more
514166 CTD/STD cast 1998-12-11 16:32Z 58° 0' N, 6° 27' W Click for more
514178 CTD/STD cast 1998-12-11 16:46Z 58° 0' N, 6° 28' W Click for more
514191 CTD/STD cast 1998-12-11 17:01Z 58° 0' N, 6° 30' W Click for more
514209 CTD/STD cast 1998-12-12 09:45Z 58° 7' N, 6° 22' W Click for more
514210 CTD/STD cast 1998-12-12 10:04Z 58° 7' N, 6° 24' W Click for more
514222 CTD/STD cast 1998-12-12 10:21Z 58° 7' N, 6° 25' W Click for more
514234 CTD/STD cast 1998-12-12 10:39Z 58° 6' N, 6° 27' W Click for more
514246 CTD/STD cast 1998-12-12 10:55Z 58° 6' N, 6° 27' W Click for more
514258 CTD/STD cast 1998-12-12 11:09Z 58° 6' N, 6° 28' W Click for more
514271 CTD/STD cast 1998-12-12 11:22Z 58° 6' N, 6° 30' W Click for more
514283 CTD/STD cast 1998-12-12 11:35Z 58° 5' N, 6° 31' W Click for more
514295 CTD/STD cast 1998-12-12 17:19Z 58° 0' N, 6° 31' W Click for more
514302 CTD/STD cast 1998-12-12 17:44Z 57° 59' N, 6° 26' W Click for more
514314 CTD/STD cast 1998-12-12 17:56Z 57° 59' N, 6° 25' W Click for more
514326 CTD/STD cast 1998-12-13 11:39Z 58° 0' N, 6° 43' W Click for more
514338 CTD/STD cast 1998-12-13 11:57Z 58° 0' N, 6° 45' W Click for more
514351 CTD/STD cast 1998-12-13 12:15Z 57° 59' N, 6° 43' W Click for more
514363 CTD/STD cast 1998-12-13 12:34Z 57° 58' N, 6° 42' W Click for more
514375 CTD/STD cast 1998-12-13 12:54Z 57° 57' N, 6° 41' W Click for more
514387 CTD/STD cast 1998-12-13 13:11Z 57° 56' N, 6° 40' W Click for more
514399 CTD/STD cast 1998-12-13 13:27Z 57° 55' N, 6° 40' W Click for more
514406 CTD/STD cast 1998-12-13 13:45Z 57° 54' N, 6° 38' W Click for more
514418 CTD/STD cast 1998-12-13 16:33Z 57° 57' N, 6° 38' W Click for more
514431 CTD/STD cast 1998-12-13 16:49Z 57° 56' N, 6° 37' W Click for more
514443 CTD/STD cast 1998-12-13 17:05Z 57° 55' N, 6° 36' W Click for more
514455 CTD/STD cast 1998-12-13 17:17Z 57° 55' N, 6° 36' W Click for more
514467 CTD/STD cast 1998-12-13 17:33Z 57° 54' N, 6° 35' W Click for more

Project Database

No data currently held for this cruise in the BODC Project Database

References

Track Charts

Track Chart

Reports

Cruise Report